DW5479 Weather Reports


time (UTC)temp
C
wind
direction
speed
KPH
gust
KPH
rain 1hr
cm
rain 24hr
cm
rain mn
cm
humidity
%
barometer
mb
20221203055041 16 185 0.0 0.0 0.00 0.03 0.03 87 1022.7
20221203054546 16 185 0.0 1.6 0.00 0.03 0.03 87 1022.6
20221203054042 16 185 0.0 3.2 0.00 0.03 0.03 87 1022.5
20221203053545 16 185 0.0 4.8 0.00 0.03 0.03 87 1022.4
20221203053044 16 170 1.6 4.8 0.00 0.03 0.03 87 1022.2
20221203052540 16 194 3.2 4.8 0.00 0.03 0.03 87 1022.2
20221203052040 16 349 1.6 4.8 0.00 0.03 0.03 87 1022.4
20221203051542 16 349 1.6 3.2 0.00 0.03 0.03 87 1022.5
20221203051040 16 349 1.6 1.6 0.00 0.03 0.03 87 1022.6
20221203050541 16 349 0.0 1.6 0.00 0.03 0.03 87 1022.7
20221203050040 16 349 0.0 1.6 0.00 0.03 0.03 87 1022.8
20221203045539 16 349 0.0 1.6 0.00 0.03 0.03 87 1022.9
20221203045039 16 349 0.0 1.6 0.00 0.03 0.03 87 1022.8
20221203044538 16 349 0.0 1.6 0.00 0.03 0.03 87 1022.8
20221203044038 16 349 0.0 1.6 0.00 0.03 0.03 87 1022.7
20221203043537 16 349 0.0 1.6 0.00 0.03 0.03 87 1022.6
20221203043038 16 349 0.0 1.6 0.00 0.03 0.03 87 1022.6
20221203042537 16 349 0.0 1.6 0.00 0.03 0.03 87 1022.6
20221203042037 16 349 0.0 1.6 0.00 0.03 0.03 88 1022.5
20221203041541 16 349 0.0 1.6 0.00 0.03 0.03 88 1022.4
20221203041041 16 349 0.0 1.6 0.00 0.03 0.03 88 1022.4
20221203040537 16 349 0.0 1.6 0.00 0.03 0.03 88 1022.3
20221203040036 16 349 0.0 1.6 0.00 0.03 0.03 88 1022.2
20221203035536 16 349 0.0 1.6 0.00 0.03 0.03 88 1022.2
20221203035035 16 349 0.0 1.6 0.00 0.03 0.03 88 1022.1
20221203034536 16 349 0.0 0.0 0.00 0.03 0.03 88 1022.2
20221203034036 16 349 0.0 0.0 0.00 0.03 0.03 88 1022.1
20221203033535 16 349 0.0 0.0 0.00 0.03 0.03 88 1022.0
20221203033039 16 349 0.0 0.0 0.00 0.03 0.03 88 1022.0
20221203032535 16 349 0.0 1.6 0.00 0.03 0.03 88 1021.9
20221203032035 16 349 0.0 1.6 0.00 0.03 0.03 88 1021.9
20221203031535 16 349 0.0 1.6 0.00 0.03 0.03 88 1021.9
20221203031033 16 349 0.0 1.6 0.00 0.03 0.03 88 1021.9
20221203030534 16 349 0.0 1.6 0.00 0.03 0.03 88 1021.8
20221203030033 16 349 0.0 1.6 0.00 0.03 0.03 88 1021.8
20221203025532 16 349 0.0 1.6 0.00 0.03 0.03 88 1021.8
20221203025032 16 349 0.0 1.6 0.00 0.03 0.03 88 1021.7
20221203024533 16 349 0.0 1.6 0.00 0.03 0.03 88 1021.7
20221203024033 16 349 0.0 1.6 0.00 0.03 0.03 88 1021.6
20221203023532 16 349 0.0 1.6 0.00 0.03 0.03 88 1021.6
20221203023040 16 349 0.0 1.6 0.00 0.03 0.03 88 1021.5
20221203022532 16 349 0.0 1.6 0.00 0.03 0.03 88 1021.4
20221203022032 16 349 0.0 1.6 0.00 0.03 0.03 88 1021.4
20221203021532 16 349 0.0 3.2 0.00 0.03 0.03 88 1021.4
20221203021031 16 349 0.0 3.2 0.00 0.03 0.03 88 1021.4
20221203020532 16 349 1.6 3.2 0.00 0.03 0.03 88 1021.3
20221203020037 16 287 0.0 1.6 0.00 0.03 0.03 88 1021.2
20221203015529 16 287 0.0 0.0 0.00 0.03 0.03 88 1021.1
20221203015030 16 287 0.0 1.6 0.00 0.03 0.03 88 1021.1
20221203014540 16 287 0.0 1.6 0.00 0.03 0.03 88 1021.0
20221203014029 16 287 0.0 1.6 0.00 0.03 0.03 88 1021.0
20221203013530 16 287 0.0 1.6 0.00 0.03 0.03 88 1020.9
20221203013042 16 287 0.0 1.6 0.00 0.03 0.03 88 1020.8
20221203012534 16 287 0.0 1.6 0.00 0.03 0.03 88 1020.8
20221203012029 16 287 0.0 1.6 0.00 0.03 0.03 88 1020.6
20221203011529 17 287 0.0 1.6 0.00 0.03 0.03 88 1020.5
20221203011028 17 287 0.0 1.6 0.00 0.03 0.03 88 1020.4
20221203010528 17 287 0.0 1.6 0.00 0.03 0.03 88 1020.3
20221203010037 17 287 0.0 1.6 0.00 0.03 0.03 88 1020.2
20221203005528 17 287 0.0 1.6 0.00 0.03 0.03 88 1020.1
20221203005028 17 287 0.0 1.6 0.00 0.03 0.03 88 1020.0
20221203004528 17 287 0.0 1.6 0.00 0.03 0.03 88 1019.9
20221203004027 17 287 0.0 1.6 0.00 0.03 0.03 88 1019.9
20221203003527 17 287 0.0 1.6 0.00 0.03 0.03 88 1019.9
20221203003027 17 287 0.0 1.6 0.00 0.03 0.03 88 1019.8
20221203002532 17 287 0.0 1.6 0.00 0.03 0.03 88 1019.7
20221203002026 17 287 0.0 1.6 0.00 0.03 0.03 88 1019.7
20221203001627 17 287 0.0 3.2 0.00 0.03 0.03 88 1019.7
20221203001028 17 287 0.0 3.2 0.00 0.03 0.03 88 1019.7
20221203000530 17 274 0.0 1.6 0.00 0.03 0.03 88 1019.7
20221203000026 17 274 0.0 1.6 0.00 0.03 0.03 88 1019.6
20221202235526 17 274 0.0 1.6 0.00 0.03 0.03 88 1019.6
20221202235025 17 274 0.0 1.6 0.00 0.03 0.03 88 1019.4
20221202234527 17 274 1.6 3.2 0.00 0.03 0.03 88 1019.5
20221202234025 17 274 1.6 3.2 0.00 0.03 0.03 88 1019.4
20221202233524 17 274 0.0 3.2 0.00 0.03 0.03 88 1019.4
20221202233029 17 256 1.6 3.2 0.00 0.03 0.03 88 1019.3
20221202232524 17 244 0.0 3.2 0.00 0.03 0.03 87 1019.3
20221202232024 17 245 1.6 3.2 0.00 0.03 0.03 87 1019.3
20221202231523 17 252 0.0 8.0 0.00 0.03 0.03 87 1019.3
20221202231022 17 255 3.2 8.0 0.00 0.03 0.03 87 1019.3
20221202230522 17 217 3.2 8.0 0.00 0.03 0.03 87 1019.2
20221202230024 17 247 4.8 8.0 0.00 0.03 0.03 87 1019.2
20221202225522 17 268 1.6 6.4 0.00 0.03 0.03 87 1019.1
20221202225022 17 264 3.2 8.0 0.00 0.03 0.03 87 1019.1
20221202224521 17 262 1.6 8.0 0.00 0.03 0.03 87 1019.1
20221202224021 17 276 3.2 6.4 0.00 0.03 0.03 87 1019.1
20221202223521 18 269 3.2 6.4 0.00 0.03 0.03 87 1019.1
20221202223021 18 277 1.6 8.0 0.00 0.03 0.03 87 1019.0
20221202222520 18 230 3.2 8.0 0.00 0.03 0.03 87 1018.9
20221202222020 17 252 1.6 6.4 0.00 0.03 0.03 87 1018.9
20221202221531 17 304 0.0 3.2 0.00 0.03 0.03 87 1018.9
20221202221019 17 304 0.0 3.2 0.00 0.03 0.03 87 1018.8
20221202220519 17 304 1.6 4.8 0.00 0.03 0.03 86 1018.8
20221202220019 17 241 1.6 4.8 0.00 0.03 0.03 86 1018.8
20221202215522 18 281 1.6 4.8 0.00 0.03 0.03 86 1018.8
20221202215024 18 285 0.0 3.2 0.00 0.03 0.03 86 1018.8
20221202214521 18 285 1.6 4.8 0.00 0.03 0.03 86 1018.8
20221202214019 18 285 1.6 6.4 0.00 0.03 0.03 86 1018.8
20221202213518 18 267 1.6 6.4 0.00 0.03 0.03 86 1018.7
20221202213020 18 266 1.6 4.8 0.00 0.03 0.03 86 1018.7
20221202212517 18 304 0.0 4.8 0.00 0.03 0.03 86 1018.8
20221202212018 18 307 1.6 4.8 0.00 0.03 0.03 86 1018.7
20221202211523 18 303 0.0 4.8 0.00 0.03 0.03 86 1018.8
20221202211016 18 278 0.0 4.8 0.00 0.03 0.03 86 1018.8
20221202210514 18 279 0.0 6.4 0.00 0.03 0.03 86 1018.9
20221202210029 18 271 3.2 6.4 0.00 0.03 0.03 86 1018.9
20221202205514 18 223 1.6 6.4 0.00 0.03 0.03 87 1019.0
20221202205013 17 168 1.6 6.4 0.00 0.03 0.03 87 1018.9
20221202204513 17 274 3.2 6.4 0.00 0.03 0.03 87 1019.0
20221202204013 17 274 3.2 8.0 0.00 0.03 0.03 86 1019.0
20221202203513 17 289 1.6 6.4 0.00 0.03 0.03 87 1019.0
20221202203012 17 266 3.2 8.0 0.00 0.03 0.03 86 1019.0
20221202202512 17 256 4.8 0.0 0.00 0.00 0.03 86 1019.0
20221202202015 18 263 4.8 11.3 0.00 0.03 0.03 87 1019.1
20221202201511 18 250 3.2 9.7 0.00 0.03 0.03 87 1019.0
20221202201011 17 263 3.2 11.3 0.00 0.03 0.03 87 1019.0
20221202200509 17 253 4.8 11.3 0.00 0.03 0.03 87 1019.0
20221202200012 17 255 6.4 11.3 0.00 0.03 0.03 88 1019.1
20221202195507 17 278 1.6 8.0 0.00 0.03 0.03 88 1019.1
20221202195006 17 259 3.2 8.0 0.00 0.03 0.03 88 1019.2
20221202194506 17 278 3.2 6.4 0.00 0.03 0.03 88 1019.2
20221202194005 17 263 1.6 8.0 0.00 0.03 0.03 88 1019.3
20221202193504 17 229 1.6 9.7 0.00 0.03 0.03 88 1019.3
20221202193004 17 239 4.8 9.7 0.00 0.03 0.03 88 1019.4
20221202192504 16 288 3.2 9.7 0.00 0.03 0.03 88 1019.5
20221202192001 16 275 3.2 9.7 0.00 0.03 0.03 88 1019.5
20221202191501 16 268 4.8 9.7 0.00 0.03 0.03 88 1019.5
20221202191101 16 229 4.8 9.7 0.00 0.03 0.03 88 1019.5
20221202190602 16 255 4.8 12.9 0.00 0.03 0.03 88 1019.6
20221202190106 16 240 6.4 14.5 0.00 0.03 0.03 88 1019.7
20221202185559 16 252 6.4 14.5 0.00 0.03 0.03 88 1019.7
20221202185058 16 255 4.8 11.3 0.00 0.03 0.03 88 1019.7
20221202184557 16 225 4.8 12.9 0.00 0.03 0.03 88 1019.8
20221202184056 16 237 6.4 14.5 0.00 0.03 0.03 88 1019.9
20221202183555 16 247 6.4 14.5 0.00 0.03 0.03 88 1020.0
20221202183101 16 244 4.8 12.9 0.00 0.03 0.03 88 1020.1
20221202182654 16 238 4.8 14.5 0.00 0.03 0.03 88 1020.2
20221202182053 16 259 8.0 14.5 0.00 0.03 0.03 88 1020.3
20221202181611 16 270 8.0 12.9 0.00 0.03 0.03 88 1020.3
20221202181051 16 235 8.0 12.9 0.00 0.03 0.03 88 1020.3
20221202180550 16 246 4.8 11.3 0.00 0.03 0.03 88 1020.5
20221202180050 16 258 6.4 12.9 0.00 0.03 0.03 88 1020.6
20221202175548 16 235 8.0 12.9 0.00 0.03 0.03 88 1020.7
20221202175048 16 181 8.0 12.9 0.00 0.03 0.03 88 1020.7
20221202174548 16 211 4.8 11.3 0.00 0.03 0.03 88 1020.8
20221202174047 16 212 6.4 11.3 0.00 0.03 0.03 88 1021.0
20221202173547 16 210 4.8 9.7 0.00 0.03 0.03 88 1020.9
20221202173047 16 213 6.4 9.7 0.00 0.03 0.03 88 1021.0
20221202172545 16 204 4.8 8.0 0.00 0.03 0.03 88 1021.1
20221202172044 16 240 3.2 8.0 0.00 0.03 0.03 88 1021.2
20221202171544 16 201 3.2 6.4 0.00 0.03 0.03 88 1021.2
20221202171045 16 184 1.6 8.0 0.00 0.03 0.03 88 1021.2
20221202170542 15 200 3.2 9.7 0.00 0.03 0.03 88 1021.2
20221202170048 15 161 4.8 9.7 0.00 0.03 0.03 88 1021.2
20221202165543 15 155 4.8 8.0 0.00 0.03 0.03 88 1021.2
20221202165040 15 147 3.2 6.4 0.00 0.03 0.03 89 1021.2
20221202164540 15 186 3.2 6.4 0.00 0.03 0.03 89 1021.3
20221202164038 15 233 1.6 6.4 0.00 0.03 0.03 89 1021.4
20221202163537 15 132 1.6 4.8 0.00 0.03 0.03 89 1021.4
20221202163043 15 148 1.6 4.8 0.00 0.03 0.03 89 1021.4
20221202162536 15 169 1.6 6.4 0.00 0.03 0.03 89 1021.3
20221202162034 15 160 1.6 6.4 0.00 0.03 0.03 89 1021.3
20221202161533 14 162 1.6 6.4 0.00 0.03 0.03 89 1021.3
20221202161034 14 219 1.6 3.2 0.00 0.03 0.03 89 1021.4
20221202160530 14 191 1.6 6.4 0.00 0.03 0.03 89 1021.4
20221202160029 13 236 1.6 6.4 0.00 0.03 0.03 89 1021.5
20221202155534 13 182 1.6 4.8 0.00 0.03 0.03 89 1021.5
20221202155027 13 190 1.6 4.8 0.00 0.03 0.03 89 1021.6
20221202154526 13 84 0.0 1.6 0.00 0.03 0.03 89 1021.5
20221202154025 13 84 1.6 3.2 0.00 0.03 0.03 89 1021.5
20221202153524 12 84 0.0 3.2 0.00 0.03 0.03 89 1021.5
20221202153024 12 84 0.0 1.6 0.00 0.03 0.03 89 1021.5
20221202152526 12 84 1.6 1.6 0.00 0.03 0.03 89 1021.4
20221202152023 12 84 0.0 1.6 0.00 0.03 0.03 89 1021.3
20221202151522 12 84 0.0 1.6 0.00 0.03 0.03 89 1021.2
20221202151025 12 84 0.0 3.2 0.00 0.03 0.03 89 1021.1
20221202150520 12 84 0.0 3.2 0.00 0.03 0.03 89 1021.1
20221202150020 12 84 0.0 1.6 0.00 0.03 0.03 89 1021.1
20221202145520 12 84 0.0 1.6 0.00 0.03 0.03 89 1021.0
20221202145018 12 84 0.0 3.2 0.00 0.03 0.03 89 1021.1
20221202144524 11 84 0.0 3.2 0.00 0.03 0.03 89 1021.1
20221202144017 11 84 0.0 4.8 0.00 0.03 0.03 89 1021.0
20221202143517 11 98 0.0 4.8 0.00 0.03 0.03 89 1021.0
20221202143016 11 103 0.0 4.8 0.00 0.03 0.03 89 1021.0
20221202142514 11 103 0.0 6.4 0.00 0.03 0.03 89 1021.1
20221202142015 11 103 1.6 6.4 0.00 0.03 0.03 89 1021.1
20221202141514 11 72 3.2 4.8 0.00 0.03 0.03 89 1021.2
20221202141013 11 73 1.6 4.8 0.00 0.03 0.03 89 1021.2
20221202140517 11 102 0.0 3.2 0.00 0.03 0.03 89 1021.1
20221202140014 11 102 1.6 3.2 0.00 0.03 0.03 89 1020.9
20221202135512 11 102 1.6 3.2 0.00 0.03 0.03 89 1020.9
20221202135012 11 102 0.0 3.2 0.00 0.03 0.03 89 1020.9
20221202134511 11 107 1.6 3.2 0.00 0.03 0.03 89 1021.0
20221202134011 11 107 0.0 3.2 0.00 0.03 0.03 89 1020.9
20221202133509 11 107 0.0 4.8 0.00 0.03 0.03 89 1020.8
20221202133009 11 91 1.6 4.8 0.00 0.03 0.03 89 1020.8
20221202132509 11 66 1.6 4.8 0.00 0.03 0.03 89 1020.9
20221202132007 11 64 1.6 4.8 0.00 0.03 0.03 89 1020.9
20221202131507 11 64 1.6 3.2 0.00 0.03 0.03 89 1020.8
20221202131004 11 64 0.0 4.8 0.03 0.03 0.03 89 1020.8
20221202130504 11 64 1.6 4.8 0.03 0.03 0.03 89 1020.8
20221202130010 11 78 1.6 4.8 0.03 0.03 0.03 89 1020.7
20221202125603 11 56 1.6 3.2 0.03 0.03 0.03 89 1020.7
20221202125002 11 56 0.0 3.2 0.03 0.03 0.03 89 1020.7
20221202124502 11 56 1.6 3.2 0.03 0.03 0.03 89 1020.6
20221202124002 11 56 1.6 4.8 0.03 0.03 0.03 89 1020.7
20221202123501 11 56 1.6 4.8 0.03 0.03 0.03 89 1020.7
20221202123001 10 56 1.6 3.2 0.03 0.03 0.03 89 1020.8
20221202122503 10 56 1.6 3.2 0.03 0.03 0.03 89 1020.7
20221202122002 10 56 0.0 3.2 0.03 0.03 0.03 89 1020.7
20221202121501 10 56 0.0 3.2 0.00 0.00 0.00 89 1020.7
20221202121100 10 56 0.0 3.2 0.00 0.00 0.00 89 1020.6
20221202120600 10 56 0.0 4.8 0.00 0.00 0.00 89 1020.7
20221202120100 10 56 1.6 4.8 0.00 0.00 0.00 89 1020.6
20221202115559 10 23 0.0 3.2 0.00 0.00 0.00 89 1020.7
20221202115059 10 23 1.6 4.8 0.00 0.00 0.00 89 1020.7
20221202114558 10 54 1.6 4.8 0.00 0.00 0.00 89 1020.7
20221202114059 10 360 1.6 4.8 0.00 0.00 0.00 89 1020.6
20221202113602 10 32 1.6 3.2 0.00 0.00 0.00 89 1020.7
20221202113058 10 32 0.0 6.4 0.00 0.00 0.00 89 1020.8
20221202112558 10 32 1.6 6.4 0.00 0.00 0.00 89 1020.7
20221202112128 10 355 1.6 3.2 0.00 0.00 0.00 89 1020.7
20221202111601 10 45 1.6 4.8 0.00 0.00 0.00 89 1020.7
20221202111059 10 4 1.6 3.2 0.00 0.00 0.00 89 1020.6
20221202110555 10 20 1.6 4.8 0.00 0.00 0.00 89 1020.7
20221202110054 10 1 1.6 4.8 0.00 0.00 0.00 89 1020.7
20221202105551 10 16 1.6 4.8 0.00 0.00 0.00 89 1020.7
20221202105051 10 16 1.6 4.8 0.00 0.00 0.00 89 1020.7
20221202104548 10 15 0.0 3.2 0.00 0.00 0.00 89 1020.8
20221202104047 10 15 1.6 4.8 0.00 0.00 0.00 89 1020.8
20221202103546 10 352 1.6 6.4 0.00 0.00 0.00 89 1020.8
20221202103047 10 360 3.2 6.4 0.00 0.00 0.00 89 1020.8
20221202102543 10 359 1.6 3.2 0.00 0.00 0.00 89 1021.0
20221202102041 10 345 0.0 3.2 0.00 0.00 0.00 89 1020.9
20221202101540 10 338 1.6 3.2 0.00 0.00 0.00 89 1021.0
20221202101038 10 12 0.0 3.2 0.00 0.00 0.00 89 1021.0
20221202100537 10 14 1.6 4.8 0.00 0.00 0.00 89 1021.0
20221202100036 10 346 1.6 3.2 0.00 0.00 0.00 89 1020.9
20221202095537 10 308 0.0 3.2 0.00 0.00 0.00 89 1020.9
20221202095034 10 359 1.6 4.8 0.00 0.00 0.00 89 1020.9
20221202094549 10 16 1.6 3.2 0.00 0.00 0.00 89 1020.9
20221202094034 10 16 1.6 3.2 0.00 0.00 0.00 89 1021.0
20221202093538 10 16 1.6 3.2 0.00 0.00 0.00 89 1020.9
20221202093037 10 16 1.6 3.2 0.00 0.00 0.00 89 1020.9
20221202092537 10 16 1.6 3.2 0.00 0.00 0.00 89 1020.9
20221202092034 10 16 1.6 3.2 0.00 0.00 0.00 89 1020.9
20221202091533 10 15 0.0 3.2 0.00 0.00 0.00 89 1021.0
20221202091033 10 15 1.6 6.4 0.00 0.00 0.00 89 1020.9
20221202090535 10 70 1.6 6.4 0.00 0.00 0.00 89 1020.8
20221202090032 10 70 0.0 6.4 0.00 0.00 0.00 89 1020.9
20221202085533 10 70 1.6 6.4 0.00 0.00 0.00 89 1020.9
20221202085031 10 72 1.6 6.4 0.00 0.00 0.00 89 1020.9
20221202084532 10 60 1.6 6.4 0.00 0.00 0.00 89 1021.0
20221202084035 10 72 3.2 6.4 0.00 0.00 0.00 89 1021.0
20221202083530 10 56 1.6 4.8 0.00 0.00 0.00 89 1021.0
20221202083029 10 56 1.6 3.2 0.00 0.00 0.00 89 1021.2
20221202082530 10 56 1.6 4.8 0.00 0.00 0.00 89 1021.3
20221202082028 10 56 1.6 6.4 0.00 0.00 0.00 89 1021.3
20221202081531 10 57 1.6 6.4 0.00 0.00 0.00 89 1021.3
20221202081025 10 19 1.6 4.8 0.00 0.00 0.00 89 1021.5
20221202080526 10 54 0.0 3.2 0.00 0.00 0.00 89 1021.6
20221202080024 10 128 0.0 4.8 0.00 0.00 0.00 89 1021.6
20221202075524 10 128 1.6 4.8 0.00 0.00 0.00 89 1021.7
20221202075028 10 347 0.0 8.0 0.00 0.00 0.00 89 1021.8
20221202074523 10 7 3.2 8.0 0.00 0.00 0.00 89 1021.7
20221202074024 10 34 3.2 6.4 0.00 0.00 0.00 89 1021.8
20221202073522 10 65 1.6 6.4 0.00 0.00 0.00 89 1021.8
20221202073022 10 17 1.6 6.4 0.00 0.00 0.00 89 1021.9
20221202072524 10 28 0.0 4.8 0.00 0.00 0.00 89 1021.9
20221202072022 10 28 0.0 4.8 0.00 0.00 0.00 89 1021.9
20221202071524 10 66 1.6 3.2 0.00 0.00 0.00 89 1021.8
20221202071021 10 66 1.6 3.2 0.00 0.00 0.00 89 1021.9
20221202070521 10 66 0.0 3.2 0.00 0.00 0.00 89 1021.8
20221202070021 10 66 1.6 4.8 0.00 0.00 0.00 89 1021.8
20221202065521 10 66 0.0 4.8 0.00 0.00 0.00 89 1021.9
20221202065019 10 66 1.6 3.2 0.00 0.00 0.00 89 1022.0
20221202064518 10 66 0.0 4.8 0.00 0.00 0.00 89 1022.0
20221202064019 10 66 1.6 6.4 0.00 0.00 0.00 89 1022.1
20221202063518 10 67 1.6 6.4 0.00 0.00 0.00 89 1022.1
20221202063018 10 72 3.2 8.0 0.00 0.00 0.00 89 1022.1
20221202062518 10 91 3.2 8.0 0.00 0.00 0.00 89 1022.2
20221202062016 10 58 1.6 6.4 0.00 0.00 0.00 89 1022.4
20221202061616 10 59 3.2 6.4 0.00 0.00 0.00 89 1022.4
20221202061015 10 80 3.2 4.8 0.00 0.00 0.00 89 1022.4
20221202060515 10 80 0.0 3.2 0.00 0.00 0.00 89 1022.6
20221202060014 10 80 0.0 4.8 0.00 0.00 0.00 89 1022.6
20221202055512 10 80 1.6 4.8 0.00 0.00 0.00 89 1022.8